Location: Invercargill
(46.4000°S, 168.3500°E)
Time: 19:42:30
(UTC+12:00)

Meteor 2-3 Rocket - Pass Details

Date: 14 May 2021
Orbit: 841 x 887 km, 81.2° (Epoch: 14 June)

Event Time Altitude Azimuth Distance (km) Brightness Sun altitude
Rises 19:19:57 0° 9° (N) 3,396 6.8 -19.7°
Reaches altitude 10° 19:22:24 10° 14° (NNE) 2,473 6.0 -20.1°
Maximum altitude 19:27:45 48° 87° (E) 1,120 3.9 -21.0°
Enters shadow 19:29:42 34° 135° (SE) 1,386 4.4 -21.4°
